Find OneWeb SL0569

NORAD ID: 55148 Int'l Des: 2023-004 Owner: ONEWEBN Country: UK Constellation: oneweb operational
LEOCIRCULARPOLARONEWEB_TYPE

Live Position

Loading 3D Globe...

About OneWeb SL0569

Description loading...

Upcoming Passes

Passes for default location (London). Set your location on the main map for personalized predictions.

Altitude History

Loading altitude history...

Two-Line Element Set

1 55148U 23004J 26127.10075439 .00000169 00000-0 42717-3 0 9999
2 55148 87.8964 328.4014 0001490 48.7736 311.3521 13.13470623164780
Epoch: May 7, 2026 • Age: 12 hours

Current Status

Altitude 1221.4 km
Velocity 7.25 km/s
Sub-Earth Point 69.67°N, 68.01°E
Launch Date Jan 10, 2023
Age 3.3 years
Type internet

Technical Details

Classification Payload
Mass 148.00 kg
Dry Mass 140.00 kg
Total Mass 148.00 kg
Length 1.30 m
Diameter 1.00 m
Span 5.00 m
Shape Trapezoid+2 pan
Manufacturer ONEWUS
Bus Type ARROW
Phase Status In Orbit
Owner/State ONEWEBN/UK

Most Searched